Date String (YYYY-MM-DD hh:mm:ss) UTC,Instrument flags,Ambient pressure (hPa),Sample flow (lpm),Bypass flow (lpm),Sample temperature (°C),Ambient temperature (°C),ASC tube jacket temperature (°C),LED temperature (°C),Box temperature (°C),Sample RH (%),Span deviation,Mass concentration (μg/m³),Mass concentration (μg/m³),Mass concentration (μg/m³)
DateTimeUTC,F1_M11,P_M11,Q1_M11,Q2_M11,T1_M11,T2_M11,T3_M11,T4_M11,T5_M11,U1_M11,ZSPAN_M11,X0_M11,X2_M11,X1_M11
2022-03-20 13:00:00,,0819.7,5.02,0.00,23.2,22.2,00.0,32.3,24.9,08.6,0000.0,0010.37,0004.63,0002.90
2022-03-20 13:01:00,,0819.7,4.99,0.00,23.2,22.2,00.0,32.3,24.9,08.6,0000.0,0010.48,0004.60,0002.88
2022-03-20 13:02:00,,0819.7,5.01,0.00,23.2,22.2,00.0,32.3,24.9,08.5,0000.0,0010.68,0004.63,0002.87
2022-03-20 13:03:00,,0819.7,5.01,0.00,23.2,22.2,00.0,32.3,24.9,08.5,0000.0,0010.32,0004.60,0002.87
2022-03-20 13:04:00,,0819.7,5.00,0.00,23.2,22.2,00.0,32.3,24.9,08.5,0000.0,0010.19,0004.57,0002.84
2022-03-20 13:05:00,,0819.7,5.01,0.00,23.2,22.1,00.0,32.3,24.9,08.5,0000.0,0010.09,0004.58,0002.82
2022-03-20 13:06:00,,0819.7,4.99,0.00,23.2,22.1,00.0,32.3,24.8,08.4,0000.0,0010.16,0004.59,0002.80
2022-03-20 13:07:00,,0819.7,5.00,0.00,23.2,22.1,00.0,32.2,24.8,08.4,0000.0,0010.41,0004.51,0002.77
2022-03-20 13:08:00,,0819.7,5.01,0.00,23.1,22.1,00.0,32.2,24.8,08.4,0000.0,0010.56,0004.49,0002.77
2022-03-20 13:09:00,,0819.7,4.99,0.00,23.1,22.1,00.0,32.2,24.8,08.4,0000.0,0010.59,0004.49,0002.75
2022-03-20 13:10:00,,0819.7,4.99,0.00,23.1,22.0,00.0,32.2,24.8,08.3,0000.0,0010.73,0004.47,0002.72
2022-03-20 13:11:00,,0819.7,5.01,0.00,23.1,22.1,00.0,32.2,24.9,08.4,0000.0,0011.60,0004.55,0002.70
2022-03-20 13:12:00,,0819.7,4.99,0.00,23.1,22.1,00.0,32.2,24.8,08.4,0000.0,0011.52,0004.55,0002.70
2022-03-20 13:13:00,,0819.7,5.00,0.00,23.1,22.1,00.0,32.2,24.8,08.4,0000.0,0011.39,0004.53,0002.70
2022-03-20 13:14:00,,0819.7,5.01,0.00,23.1,22.1,00.0,32.2,24.8,08.3,0000.0,0011.49,0004.50,0002.67
2022-03-20 13:15:00,,0819.7,4.99,0.00,23.1,22.1,00.0,32.2,24.8,08.3,0000.0,0011.76,0004.48,0002.65
2022-03-20 13:16:00,,0819.8,5.00,0.00,23.1,22.1,00.0,32.2,24.8,08.3,0000.0,0011.76,0004.49,0002.65
2022-03-20 13:17:00,,0819.8,5.00,0.00,23.1,22.1,00.0,32.2,24.8,08.3,0000.0,0011.90,0004.53,0002.63
2022-03-20 13:18:00,,0819.8,4.99,0.00,23.1,22.1,00.0,32.2,24.8,08.3,0000.0,0011.67,0004.59,0002.65
2022-03-20 13:19:00,,0819.8,5.01,0.00,23.1,22.1,00.0,32.2,24.8,08.3,0000.0,0011.33,0004.53,0002.65
2022-03-20 13:20:00,,0819.8,4.99,0.00,23.1,22.1,00.0,32.2,24.9,08.3,0000.0,0011.33,0004.50,0002.64
2022-03-20 13:21:00,,0819.7,4.99,0.00,23.1,22.1,00.0,32.2,24.8,08.3,0000.0,0011.27,0004.55,0002.65
2022-03-20 13:22:00,,0819.8,5.02,0.00,23.1,22.1,00.0,32.2,24.8,08.3,0000.0,0010.43,0004.51,0002.66
2022-03-20 13:23:00,,0819.8,5.00,0.00,23.1,22.1,00.0,32.2,24.8,08.3,0000.0,0010.34,0004.51,0002.66
2022-03-20 13:24:00,,0819.7,4.99,0.00,23.1,22.1,00.0,32.1,24.8,08.3,0000.0,0010.66,0004.53,0002.67
2022-03-20 13:25:00,,0819.7,5.01,0.00,23.1,22.1,00.0,32.1,24.8,08.3,0000.0,0010.58,0004.55,0002.67
2022-03-20 13:26:00,,0819.7,5.00,0.00,23.1,22.1,00.0,32.1,24.8,08.3,0000.0,0010.30,0004.57,0002.69
2022-03-20 13:27:00,,0819.6,4.98,0.00,23.1,22.1,00.0,32.1,24.8,08.3,0000.0,0010.30,0004.53,0002.66
2022-03-20 13:28:00,,0819.5,5.01,0.00,23.1,22.1,00.0,32.1,24.8,08.3,0000.0,0009.98,0004.42,0002.67
2022-03-20 13:29:00,,0819.6,4.99,0.00,23.1,22.1,00.0,32.1,24.8,08.3,0000.0,0009.80,0004.37,0002.66
2022-03-20 13:30:00,,0819.6,4.99,0.00,23.1,22.1,00.0,32.1,24.8,08.3,0000.0,0009.94,0004.41,0002.67
2022-03-20 13:31:00,,0819.6,5.01,0.00,23.1,22.1,00.0,32.1,24.8,08.3,0000.0,0010.11,0004.45,0002.69
2022-03-20 13:32:00,,0819.5,4.99,0.00,23.1,22.1,00.0,32.1,24.8,08.3,0000.0,0010.23,0004.46,0002.70
2022-03-20 13:33:00,,0819.5,5.00,0.00,23.1,22.1,00.0,32.1,24.8,08.3,0000.0,0010.39,0004.48,0002.70
2022-03-20 13:34:00,,0819.6,5.02,0.00,23.1,22.1,00.0,32.1,24.8,08.3,0000.0,0010.56,0004.53,0002.70
2022-03-20 13:35:00,,0819.7,4.99,0.00,23.1,22.1,00.0,32.1,24.8,08.3,0000.0,0010.24,0004.52,0002.69
2022-03-20 13:36:00,,0819.7,4.99,0.00,23.1,22.1,00.0,32.1,24.8,08.3,0000.0,0010.50,0004.54,0002.68
2022-03-20 13:37:00,,0819.8,5.00,0.00,23.1,22.1,00.0,32.1,24.8,08.3,0000.0,0010.56,0004.52,0002.67
2022-03-20 13:38:00,,0819.8,5.01,0.00,23.1,22.1,00.0,32.1,24.8,08.5,0000.0,0011.02,0004.51,0002.66
2022-03-20 13:39:00,,0819.8,4.99,0.00,23.0,22.1,00.0,32.1,24.7,08.4,0000.0,0011.33,0004.53,0002.64
2022-03-20 13:40:00,,0819.7,5.01,0.00,23.0,22.1,00.0,32.1,24.7,08.3,0000.0,0012.02,0004.59,0002.63
2022-03-20 13:41:00,,0819.7,5.00,0.00,23.0,22.0,00.0,32.1,24.7,08.3,0000.0,0012.65,0004.54,0002.60
2022-03-20 13:42:00,,0819.7,5.01,0.00,23.0,22.0,00.0,32.1,24.7,08.3,0000.0,0012.35,0004.45,0002.55
2022-03-20 13:43:00,,0819.5,5.01,0.00,23.0,22.0,00.0,32.1,24.7,08.5,0000.0,0012.15,0004.39,0002.51
2022-03-20 13:44:00,,0819.6,5.00,0.00,23.0,22.0,00.0,32.1,24.7,08.3,0000.0,0012.20,0004.40,0002.48
2022-03-20 13:45:00,,0819.5,5.00,0.00,23.0,22.0,00.0,32.0,24.7,08.2,0000.0,0012.15,0004.34,0002.45
2022-03-20 13:46:00,,0819.5,5.01,0.00,23.0,22.0,00.0,32.0,24.7,08.2,0000.0,0011.99,0004.28,0002.43
2022-03-20 13:47:00,,0819.6,4.99,0.00,23.0,22.0,00.0,32.0,24.7,08.4,0000.0,0011.63,0004.22,0002.42
2022-03-20 13:48:00,,0819.6,5.00,0.00,23.0,22.0,00.0,32.0,24.7,08.3,0000.0,0011.61,0004.18,0002.40
2022-03-20 13:49:00,,0819.6,5.01,0.00,23.0,22.0,00.0,32.0,24.7,08.2,0000.0,0011.06,0004.19,0002.38
2022-03-20 13:50:00,,0819.6,4.99,0.00,23.0,22.0,00.0,32.0,24.7,08.3,0000.0,0010.84,0004.20,0002.37
2022-03-20 13:51:00,,0819.5,4.99,0.00,23.0,22.0,00.0,32.0,24.7,08.4,0000.0,0010.26,0004.18,0002.37
2022-03-20 13:52:00,,0819.5,5.01,0.00,23.0,22.0,00.0,32.0,24.7,08.4,0000.0,0009.57,0004.18,0002.38
2022-03-20 13:53:00,,0819.5,5.00,0.00,23.0,21.9,00.0,32.0,24.7,08.4,0000.0,0009.67,0004.21,0002.41
2022-03-20 13:54:00,,0819.6,5.00,0.00,23.0,21.9,00.0,32.0,24.7,08.4,0000.0,0009.64,0004.21,0002.41
2022-03-20 13:55:00,,0819.5,4.99,0.00,23.0,21.9,00.0,32.0,24.7,08.5,0000.0,0009.30,0004.12,0002.41
2022-03-20 13:56:00,,0819.5,5.01,0.00,23.0,21.9,00.0,32.0,24.7,08.4,0000.0,0009.14,0004.09,0002.42
2022-03-20 13:57:00,,0819.6,5.00,0.00,22.9,21.9,00.0,32.0,24.6,08.4,0000.0,0009.27,0004.16,0002.41
2022-03-20 13:58:00,,0819.5,4.99,0.00,22.9,21.9,00.0,32.0,24.7,08.5,0000.0,0009.27,0004.19,0002.41
2022-03-20 13:59:00,,0819.6,5.00,0.00,22.9,21.9,00.0,32.0,24.7,08.6,0000.0,0009.11,0004.16,0002.41
